Redmond, OR

7:09 AM PDT on July 26, 2017 (GMT -0700)
Roberts Field Airport

Weather History for KRDM - November, 2010

Change the Weather History Date:

Saturday, November 20, 2010

  Actual Average Record
Temperature  
Mean Temperature 35 °F 36 °F  
Max Temperature 42 °F 47 °F 74 °F (2002)
Min Temperature 28 °F 25 °F -10 °F (1977)
Degree Days  
Heating Degree Days 30 29  
Month to date heating degree days 449 519  
Since 1 July heating degree days 1368 1464  
Cooling Degree Days 0 0  
Month to date cooling degree days 0 0  
Year to date cooling degree days 161 222  
Moisture  
Dew Point 26 °F    
Average Humidity 75    
Maximum Humidity 100    
Minimum Humidity 50    
Precipitation  
Precipitation T in 0.03 in 0.33 in (1984)
Month to date precipitation 0.51 0.62  
Year to date precipitation 9.29 7.40  
Sea Level Pressure  
Sea Level Pressure 29.62 in    
Wind  
Wind Speed 4 mph (SE)    
Max Wind Speed 12 mph    
Max Gust Speed 15 mph    
Visibility 7 miles    
Events Snow    
T = Trace of Precipitation, MM = Missing Value Source: NWS Daily Summary

Daily Weather History Graph

Daily Weather History Graph

Search for Another Location

Airport or City:

Trip Planner

Search our weather history database for the weather conditions in past years. The results will help you decide how hot, cold, wet, or windy it might be!

Date:

Astronomy

Nov. 20, 2010 Rise Set
Actual Time 7:06 AM PST 4:33 PM PST
Civil Twilight 6:35 AM PST 5:04 PM PST
Nautical Twilight 5:59 AM PST 5:40 PM PST
Astronomical Twilight 5:25 AM PST 6:14 PM PST
Moon 3:42 PM PST (11/20) 6:12 AM PST (11/20)
Length of Visible Light 10h 29m
Length of Day
9h 26m
Waxing Gibbous, 99% of the Moon is Illuminated
Nov 20
Waxing Gibbous
Nov 21
Full
Nov 28
Last Quarter
Dec 5
New
Dec 13
First Quarter

Hourly Weather History & Observations

Time (PST) Temp. Windchill Dew Point Humidity Pressure Visibility Wind Dir Wind Speed Gust Speed Precip Events Conditions
12:56 AM 30.0 °F 21.1 °F 21.9 °F 72% 29.66 in 10.0 mi South 10.4 mph - N/A   Clear
1:56 AM 30.0 °F 21.7 °F 21.9 °F 72% 29.65 in 10.0 mi South 9.2 mph - N/A   Clear
2:56 AM 30.0 °F 22.4 °F 21.0 °F 69% 29.62 in 10.0 mi South 8.1 mph - N/A   Clear
3:56 AM 30.0 °F 24.1 °F 21.9 °F 72% 29.62 in 10.0 mi South 5.8 mph - N/A   Overcast
4:56 AM 28.9 °F 25.2 °F 21.0 °F 72% 29.61 in 10.0 mi South 3.5 mph - N/A   Overcast
5:56 AM 28.9 °F - 21.9 °F 75% 29.60 in 10.0 mi Calm Calm - N/A   Overcast
6:56 AM 28.0 °F - 23.0 °F 81% 29.61 in 10.0 mi Calm Calm - N/A   Overcast
7:56 AM 32.0 °F 27.5 °F 23.0 °F 69% 29.62 in 10.0 mi SE 4.6 mph - N/A   Overcast
8:29 AM 33.8 °F 28.6 °F 23.0 °F 65% 29.58 in 10.0 mi ESE 5.8 mph - N/A   Overcast
8:56 AM 33.1 °F 28.7 °F 24.1 °F 70% 29.63 in 2.0 mi SE 4.6 mph - 0.00 in Snow Light Snow
9:56 AM 33.1 °F - 25.0 °F 72% 29.62 in 4.0 mi Calm Calm - 0.00 in Snow Light Snow
10:01 AM 33.8 °F 29.6 °F 26.6 °F 75% 29.58 in 2.0 mi SE 4.6 mph - 0.00 in Snow Light Snow
10:07 AM 33.8 °F 26.4 °F 26.6 °F 75% 29.58 in 1.0 mi ESE 9.2 mph - 0.00 in Snow Light Snow
10:16 AM 32.0 °F 24.2 °F 28.4 °F 87% 29.58 in 0.8 mi SE 9.2 mph - 0.00 in Snow Light Snow
10:23 AM 33.8 °F 27.0 °F 28.4 °F 81% 29.58 in 2.0 mi ESE 8.1 mph - 0.00 in Snow Light Snow
10:38 AM 33.8 °F 26.4 °F 28.4 °F 81% 29.58 in 1.8 mi SE 9.2 mph - 0.00 in Snow Light Snow
10:43 AM 33.8 °F 27.0 °F 28.4 °F 81% 29.58 in 1.2 mi SE 8.1 mph - 0.00 in Snow Light Snow
10:52 AM 33.8 °F 26.4 °F 28.4 °F 81% 29.58 in 3.0 mi SE 9.2 mph - 0.00 in Snow Light Snow
10:56 AM 34.0 °F 28.0 °F 27.0 °F 75% 29.62 in 7.0 mi SE 6.9 mph - 0.00 in Snow Light Snow
11:56 AM 37.4 °F 33.8 °F 26.6 °F 65% 29.56 in 10.0 mi NE 4.6 mph - N/A   Mostly Cloudy
12:56 PM 37.9 °F - 25.0 °F 60% 29.60 in 10.0 mi Calm Calm - N/A   Overcast
1:56 PM 39.9 °F - 23.0 °F 51% 29.59 in 10.0 mi Calm Calm - N/A   Scattered Clouds
2:56 PM 37.9 °F 34.4 °F 24.1 °F 57% 29.60 in 10.0 mi NE 4.6 mph - N/A   Scattered Clouds
3:56 PM 37.0 °F 34.5 °F 25.0 °F 62% 29.61 in 10.0 mi North 3.5 mph - 0.00 in   Overcast
4:56 PM 32.0 °F - 28.0 °F 85% 29.64 in 10.0 mi Calm Calm - N/A   Mostly Cloudy
5:56 PM 30.9 °F 24.3 °F 28.0 °F 89% 29.65 in 10.0 mi NW 6.9 mph - N/A   Clear
6:56 PM 28.9 °F 21.9 °F 27.0 °F 92% 29.66 in 10.0 mi NNW 6.9 mph - N/A   Partly Cloudy
7:56 PM 28.9 °F 23.9 °F 28.0 °F 96% 29.65 in 10.0 mi North 4.6 mph - N/A   Overcast
8:56 PM 28.9 °F 25.2 °F 28.0 °F 96% 29.67 in 6.0 mi NW 3.5 mph - N/A   Overcast
9:56 PM 28.9 °F - 28.0 °F 96% 29.66 in 5.0 mi Calm Calm - 0.00 in   Overcast
10:11 PM 30.2 °F 26.7 °F 28.4 °F 93% 29.61 in 6.0 mi NNW 3.5 mph - N/A   Overcast
10:38 PM 30.2 °F - 28.4 °F 93% 29.61 in 3.0 mi Calm Calm - 0.00 in Snow Light Snow
10:56 PM 30.0 °F - 28.9 °F 96% 29.66 in 4.0 mi Calm Calm - 0.00 in Snow Light Snow
11:56 PM 28.9 °F 22.8 °F 28.0 °F 96% 29.64 in 6.0 mi NW 5.8 mph - 0.00 in   Overcast